Zurück zum Katalog

CZ-6A DEB

AktivPO
NORAD 60842·DEBRIS·🇨🇳 China

Gestartet Aug 6, 2024 von Taiyuan Satellite Launch Center

Loading…

Nächste Überflüge (nächste 24 Stunden)

TLE

AktuellSource: Space-Track

Epoche: Sep 13, 2026, 22:46 UTC

1 60842U 24140HV  26256.94890016  .00001731  00000-0  17755-3 0  9999
2 60842  88.8925 245.4660 0147097 193.9004 165.8155 14.82130419112494

Verfolge CZ-6A DEB in Echtzeit mit AllMySat

Download on the App Store